Espaço - Ciências - Fenômenos Naturais
Meteógrafos Informações Meteorológicas em tempo real

Aeroporto Internacional do Galeão

Histórico do Tempo
Temperatura atual: 21 graus 69 F    Umidade relativa: 94 %
Velocidade do vento: 04 nós 7 Km/h    Direção: 320 graus NW
Ajuste do altímetro ..: 1011 HPA
Visibilidade: Regular    Tempo presente: Quase sem nuvens

Observação

Data Hora BRTTempo°CUmidadePressãoVentoVisib.
24/05 - 06:56   Quase sem nuvens 21° 94% 1011 Noroeste/7 km/h 6000
24/05 - 05:56   Quase sem nuvens 22° 88% 1011 Noroeste/7 km/h 6000
24/05 - 04:56   Quase sem nuvens 22° 88% 1012 Noroeste/7 km/h 6000
24/05 - 03:56   Quase sem nuvens 22° 88% 1012 Noroeste/9 km/h 6000
24/05 - 02:56   Quase sem nuvens 23° 83% 1012 Oeste-noroeste/7 km/h 6000
24/05 - 01:56   Quase sem nuvens 23° 88% 1013 Noroeste/7 km/h 6000
24/05 - 00:56   Quase sem nuvens 23° 83% 1013 Oeste-noroeste/5 km/h 6000
23/05 - 23:56   Quase sem nuvens 23° 94% 1013 Norte-noroeste/1 km/h 7000
23/05 - 22:56   Quase sem nuvens 24° 88% 1013 Norte/5 km/h 9000
23/05 - 21:56   Céu Limpo 23° 88% 1013 Este-nordeste/5 km/h OK
23/05 - 20:56   Céu Limpo 24° 83% 1013 Este-sudeste/3 km/h OK
23/05 - 19:56   Céu Limpo 25° 83% 1012 Sudeste/9 km/h OK
23/05 - 18:56   Céu Limpo 25° 83% 1012 Sudeste/12 km/h OK
23/05 - 17:56   Céu Limpo 26° 78% 1011 Este-sudeste/12 km/h OK
23/05 - 16:56   Céu Limpo 27° 78% 1011 Este-sudeste/14 km/h OK
23/05 - 15:56   Quase sem nuvens 30° 55% 1011 Este-nordeste/10 km/h 9000
23/05 - 14:56   Quase sem nuvens 30° 58% 1011 Leste/5 km/h 9000
23/05 - 13:56   Não Disponível 28° 65% 1012 Nordeste/7 km/h 7000
23/05 - 12:56   Névoa seca 27° 74% 1013 Norte-nordeste/7 km/h 5000
23/05 - 11:56   Névoa seca 26° 74% 1014 Este-sudeste/3 km/h 5000
23/05 - 10:56   Névoa seca 24° 78% 1014 Norte-nordeste/7 km/h 4000
23/05 - 09:56   Névoa úmida 23° 88% 1015 Norte-nordeste/9 km/h 3500
23/05 - 08:56   Névoa úmida 22° 94% 1015 Leste/1 km/h 3500
23/05 - 07:56   Névoa úmida 22° 94% 1014 Norte/5 km/h 3500


Apolo11.com - Todos os direitos reservados - 2000 - 2019
Política de Privacidade   |     Termo de Uso e Licenciamento   |  -   Entre em Contato

"Política é a guerra sem sangue enquanto a guerra é a política com sangue" - Mao Tsé-Tung